Other Surface Observations
Issued by NWS Charleston, SC

Home | Current Version | Previous Version | Text Only | Print | Product List | Glossary On
Versions: 1 2 3 4 5 6 7 8 9 10 11 12 13 14 15 16 17 18 19 20 21 22 23 24 25 26 27 28 29 30 31 32 33 34 35 36 37 38 39 40 41 42 43 44 45 46 47 48 49 50
000
SXUS52 KCHS 230225
OSOCHS

MARINE OBSERVATIONS
NATIONAL WEATHER SERVICE CHARLESTON SC
1000 PM EDT MON SEP 22 2014

...DOWNTOWN CHARLESTON AND HARBOR...

CITY           SKY/WX    TMP DP  RH WIND       PRES   REMARKS
WATERFRONT PRK NOT AVBL
FORT JOHNSON   NOT AVBL

...LAKE MOULTRIE...

CITY           SKY/WX    TMP DP  RH WIND       PRES   REMARKS
PINOPOLIS      NOT AVBL

...LAKE AND SUPPLEMENTAL COASTAL OBSERVATIONS...

STATION/POSITION TIME  TEMP    WIND        PRES    WAVE   SWELL
                       AIR SEA DIR/SP/G            HT/PER HT/PER/DIR
                 (UTC) (F)     (DEG/KT/KT) (MB)    (FT/S) (FT/S/D)
FORT PULASKI     0200   72     350/  7/  9 1018.9R
SAPELO ISLAND    0200   75      60/  7     1018.0S
UPR LAKE MARION  NOT AVBL
WINYAH BAY       0200   68     360/  6     1018.0S
LAKE MURRAY      0200   69      60/  2/  6 1018.6R
ACE BASIN NERRS  0200   67        CALM     1019.0R


...C-MAN AND BUOY OBSERVATIONS...

STATION/POSITION TIME  TEMP    WIND        PRES    WAVE   SWELL
                       AIR SEA DIR/SP/G            HT/PER HT/PER/DIR
                 (UTC) (F)     (DEG/KT/KT) (MB)    (FT/S) (FT/S/D)
BUOY 41004       0200   77 82   20/ 16/ 17 1017.4R   3/ 7   2/ 7
BUOY 41008       0200   78 83   40/ 17/ 21 1017.0R   2/ 3   2/100/ 8
FOLLY BEACH CMAN 0200   74      20/  8/ 10 1018.7R
CAPERS NS BUOY   0100   73      50/ 10/ 12   N/A
FRIPP NS BUOY    NOT AVBL
5E ST. MARYS GA  0200      83                N/A     3/ 3
FRYING PAN BUOY  NOT AVBL
BUOY 41025       0200   74     360/ 14/ 16 1018.9R   4/ 8   2/130/ 8
CAPE LOOKOUT NC  0200   73      20/  8/ 10 1018.9R
BUOY 41002       0053   80 81   CALM  /  2 1018.8R   3/ 7   3/100/ 7
BUOY 41010       0200   81 84  170/  4/  6 1017.2R   3/ 7   3/ 70/ 7
BUOY 41012       NOT AVBL
ST AUGUSTINE FL  0200   75     180/ 12/ 13 1017.5R


$$



USA.gov is the U.S. government's official web portal to all federal, state and local government web resources and services.